[[{"header":{"parameterUnit":"m.s-1","parameterCategory":1,"la1":30.2991,"la2":30.254,"lo1":-89.0895,"lo2":-89.0444,"dy":0.0017,"dx":0.0017,"nx":28,"ny":28,"refTime":"2025-07-10T21:00:00:Z","depth":0,"parameterNumber":2,"parameterNumberName":"U-component_of_WINDS"},"data":[0,0,0,0,0,0,0,0,0,0,0,0,0,0,0,0,0,0,0,0,0,0,0,0,0,0,0,0,0,0,0,0,0,0,0,0,0,0,0,0,0,0,0,0,0,0,0,0,0,0,0,0,0,0,0,0,0,0,2.4342,2.4342,0,2.4424,2.4425,2.4426,2.4423,2.4422,2.4421,2.4419,2.4506,2.451,2.4513,0,0,0,0,0,0,0,0,0,0,0,0,0,2.4184,2.4187,2.4341,2.4342,2.4343,2.4424,2.4425,2.4426,2.4423,2.4422,2.442,2.4419,2.4505,2.4509,2.4513,0,0,0,0,0,0,0,0,0,0,0,0,0,2.4258,2.4188,2.4341,2.4352,2.4353,2.4424,2.4425,2.4426,2.4423,2.4422,2.442,2.4418,2.4504,2.4509,2.4514,2.458,0,0,2.4529,2.4531,0,0,0,0,0,0,0,0,2.4254,2.4264,2.4349,2.4351,2.4353,2.4411,2.4401,2.4478,2.4424,2.4397,2.4419,2.4417,2.4476,2.4483,2.4503,2.4584,2.4588,2.453,2.4533,2.4535,2.4536,0,0,0,0,0,0,0,2.4249,2.426,2.4374,2.435,2.4353,2.4353,2.4362,2.4416,2.4445,2.4399,2.4399,2.4409,2.4477,2.4498,2.4505,2.4589,2.453,2.4534,2.4537,2.4539,2.473,2.4732,0,0,0,0,0,0,2.4241,2.4256,2.4372,2.4377,2.4298,2.4357,2.4367,2.4394,2.4445,2.4451,2.441,2.4408,2.449,2.4499,2.4508,2.459,2.4535,2.454,2.4543,2.4728,2.4731,2.4733,0,0,0,0,0,0,2.4238,2.4251,2.4368,2.4316,2.4331,2.4362,2.4393,2.4397,2.4418,2.4453,2.4459,2.4426,2.4489,2.4501,2.4562,2.4593,2.4542,2.4547,2.4726,2.4729,2.4732,2.4753,0,0,0,0,0,0,2.4233,2.425,2.4275,2.4317,2.4334,2.442,2.4395,2.44,2.4426,2.4425,2.4469,2.4475,2.4489,2.4555,2.4567,2.4599,2.4551,2.4723,2.4727,2.4731,2.475,2.4756,2.4762,0,0,0,0,0,2.4228,2.4278,2.4276,2.429,2.4365,2.4422,2.4432,2.4446,2.4429,2.4454,2.4477,2.4474,2.4587,2.4561,2.4575,2.4609,2.4721,2.4726,2.473,2.4747,2.4755,2.4762,0,0,0,0,0,0,2.4239,2.4283,2.4282,2.4347,2.4381,2.4421,2.4454,2.4454,2.4493,2.449,2.4507,2.4517,2.4579,2.46,2.457,2.4676,2.4652,2.466,2.466,2.4668,2.4674,2.4668,2.4555,0,0,0,0,0,2.4249,2.429,2.4327,2.4381,2.4398,2.4423,2.4448,2.4456,2.4492,2.4506,2.4534,2.4569,2.4613,2.4642,2.4684,2.4753,2.4763,2.4783,2.4789,2.4794,2.48,2.484,2.485,2.4748,2.4748,2.4748,0,0,2.427,2.4299,2.4324,2.4384,2.4411,2.4455,2.4435,2.4482,2.4515,2.4514,2.4573,2.4595,2.4636,2.4702,2.4732,2.4721,2.4831,2.48,2.4803,2.4807,2.4846,2.4855,2.4864,2.4751,2.475,2.475,0,0,2.433,2.4356,2.4405,2.4432,2.4473,2.449,2.4502,2.4543,2.4557,2.4617,2.4618,2.4657,2.4732,2.4762,2.4786,2.486,2.4859,2.4873,2.4906,2.4944,2.4952,2.4959,2.4987,2.4996,2.488,2.488,2.488,0,2.4352,2.4416,2.443,2.4477,2.4504,2.4505,2.4555,2.4581,2.4634,2.4653,2.464,2.4734,2.4762,2.4835,2.4853,2.4873,2.4888,2.4868,2.495,2.4957,2.4964,2.499,2.5001,2.4881,2.4881,2.4881,2.4881,0,2.4441,2.4486,2.4521,2.4572,2.4602,2.465,2.4672,2.4702,2.4707,2.4726,2.4788,2.4821,2.4871,2.4889,2.4894,2.4964,2.4956,2.4946,2.4923,2.4975,2.5,2.501,2.4884,2.4883,2.4883,2.4882,0,0,2.4511,2.4569,2.4582,2.4605,2.4651,2.4687,2.4736,2.4784,2.481,2.4847,2.4889,2.4953,2.4944,2.4973,2.4982,2.5016,2.5073,2.5002,2.5003,2.5015,2.5153,2.516,2.5172,2.5073,2.5075,2.5076,2.515,0,2.4577,2.4663,2.4677,2.4753,2.4796,2.4798,2.4841,2.4875,2.4893,2.4933,2.4954,2.5,2.4985,2.5002,2.5035,2.5059,2.5101,2.5054,2.5113,2.5115,2.5104,2.5185,2.5192,2.526,2.516,2.5161,2.5163,0,2.4666,2.4705,2.4785,2.4827,2.4845,2.4883,2.4929,2.4967,2.5005,2.5017,2.5049,2.5055,2.5107,2.5081,2.5154,2.5122,2.5147,2.5163,2.5166,2.5172,2.5142,2.5194,2.5282,2.5293,2.5178,2.5177,2.5176,0,2.471,2.4783,2.484,2.4861,2.491,2.4937,2.4959,2.4996,2.5024,2.5065,2.5084,2.513,2.5155,2.5191,2.521,2.5189,2.5283,2.5258,2.5295,2.5294,2.5314,2.5313,2.5408,2.533,2.5329,2.5329,2.5329,0,2.4783,2.4832,2.4861,2.4897,2.4953,2.4969,2.5024,2.5045,2.5079,2.5119,2.5124,2.5162,2.5184,2.5226,2.5241,2.53,2.5312,2.5323,2.5327,2.5323,2.5322,2.534,2.5336,2.5332,2.5331,2.5331,2.533,0,2.4841,2.4863,2.4926,2.4968,2.498,2.5019,2.5055,2.5091,2.511,2.5161,2.5174,2.5204,2.5254,2.5276,2.5338,2.5348,2.5416,2.5415,2.5402,2.5404,2.544,2.5436,2.5551,2.5567,2.5477,2.5478,2.5478,0,2.4887,2.4925,2.4971,2.4998,2.5021,2.5065,2.5094,2.5112,2.5142,2.519,2.522,2.527,2.5311,2.539,2.5418,2.5466,2.5467,2.5504,2.5474,2.547,2.5469,2.5467,2.5471,2.551,2.5511,2.5511,2.5512,0,2.4966,2.4974,2.5016,2.5062,2.5096,2.5133,2.5169,2.5191,2.5215,2.5249,2.53,2.5332,2.5395,2.5445,2.5494,2.5518,2.552,2.5521,2.5532,2.5529,2.5521,2.5527,2.5418,2.5518,2.5518,2.5517,2.5517,2.5517,2.502,2.5054,2.5092,2.5139,2.5168,2.5202,2.5237,2.5261,2.5303,2.5355,2.5364,2.5418,2.5457,2.5524,2.555,2.5593,2.5584,2.56,2.5605,2.5608,2.5611,2.5513,2.5602,2.5602,2.5602,2.5602,2.5602,0,2.5099,2.5124,2.5167,2.5217,2.5254,2.5252,2.5292,2.5324,2.5371,2.5407,2.5447,2.5507,2.5555,2.5587,2.5637,2.5666,2.5668,2.5678,2.5677,2.5682,2.5616,2.5601,2.5676,2.5676,2.5676,2.5676,2.5676,2.5676,2.5145,2.5204,2.5217,2.5291,2.5316,2.5369,2.5392,2.5424,2.5453,2.5519,2.5559,2.5579,2.5614,2.5667,2.5712,2.572,2.5738,2.5749,2.5757,2.5695,2.5687,2.568,2.5666,2.5753,2.5753,2.5821,2.5821,2.5822]},{"header":{"parameterUnit":"m.s-1","parameterCategory":1,"la1":30.2991,"la2":30.254,"lo1":-89.0895,"lo2":-89.0444,"dy":0.0017,"dx":0.0017,"nx":28,"ny":28,"refTime":"2025-07-10T21:00:00:Z","depth":0,"parameterNumber":3,"parameterNumberName":"V-component_of_WINDS"},"data":[0,0,0,0,0,0,0,0,0,0,0,0,0,0,0,0,0,0,0,0,0,0,0,0,0,0,0,0,0,0,0,0,0,0,0,0,0,0,0,0,0,0,0,0,0,0,0,0,0,0,0,0,0,0,0,0,0,0,1.1967,1.1967,0,1.1908,1.1908,1.1907,1.1866,1.1865,1.1865,1.1865,1.1802,1.1801,1.1799,0,0,0,0,0,0,0,0,0,0,0,0,0,1.2043,1.2042,1.1967,1.1967,1.1966,1.1908,1.1907,1.1907,1.1866,1.1865,1.1865,1.1865,1.1802,1.1801,1.1799,0,0,0,0,0,0,0,0,0,0,0,0,0,1.2,1.2042,1.1968,1.1939,1.1935,1.1908,1.1907,1.1906,1.1866,1.1865,1.1865,1.1864,1.1803,1.1801,1.1799,1.1795,0,0,1.1793,1.1792,0,0,0,0,0,0,0,0,1.2002,1.1997,1.1944,1.1941,1.1937,1.1894,1.1911,1.1869,1.1866,1.1892,1.1865,1.1864,1.1833,1.1828,1.1818,1.1793,1.179,1.1792,1.1791,1.179,1.179,0,0,0,0,0,0,0,1.2005,1.1999,1.1944,1.1943,1.1939,1.1928,1.1921,1.1903,1.1866,1.189,1.1887,1.188,1.1831,1.182,1.1816,1.1789,1.1792,1.1791,1.1789,1.1789,1.1758,1.1758,0,0,0,0,0,0,1.2013,1.2002,1.1946,1.1942,1.1969,1.1927,1.192,1.1908,1.1866,1.1859,1.1881,1.1879,1.1824,1.1819,1.1814,1.1807,1.179,1.1788,1.1787,1.1757,1.1758,1.1758,0,0,0,0,0,0,1.2015,1.2009,1.1948,1.1971,1.1963,1.1926,1.1914,1.1907,1.1896,1.1859,1.1852,1.1877,1.1823,1.1817,1.1801,1.1805,1.1787,1.1786,1.1757,1.1758,1.1758,1.1794,0,0,0,0,0,0,1.2017,1.201,1.2008,1.1972,1.1962,1.1936,1.1914,1.1906,1.1893,1.189,1.1853,1.1847,1.1823,1.1804,1.1799,1.1802,1.1784,1.1756,1.1757,1.1758,1.1793,1.1796,1.1799,0,0,0,0,0,1.202,1.202,1.2008,1.2002,1.1959,1.1937,1.1931,1.1903,1.1894,1.1892,1.1868,1.1848,1.1805,1.1803,1.1796,1.1799,1.1756,1.1757,1.1758,1.1791,1.1795,1.1799,0,0,0,0,0,0,1.2057,1.2015,1.2001,1.1989,1.1967,1.193,1.1927,1.1909,1.1888,1.1886,1.1852,1.1844,1.1831,1.1813,1.1811,1.1793,1.1778,1.1778,1.1806,1.1809,1.1813,1.1817,1.1782,0,0,0,0,0,1.2064,1.205,1.2013,1.2006,1.1996,1.1964,1.1953,1.1933,1.1909,1.1899,1.1873,1.185,1.1831,1.1819,1.1799,1.179,1.1781,1.1788,1.1792,1.1794,1.1795,1.1789,1.1791,1.1762,1.1762,1.1762,0,0,1.2078,1.2053,1.2046,1.2013,1.1994,1.1979,1.1956,1.1941,1.193,1.1896,1.188,1.186,1.1832,1.1819,1.1812,1.1803,1.1801,1.1796,1.1798,1.1797,1.179,1.1793,1.1795,1.1762,1.1762,1.1762,0,0,1.2096,1.2076,1.2068,1.2049,1.202,1.1999,1.1997,1.1963,1.1949,1.1932,1.1906,1.1892,1.186,1.1841,1.1827,1.1839,1.182,1.1833,1.185,1.1845,1.1847,1.1849,1.1853,1.1855,1.1833,1.1833,1.1833,0,1.2117,1.2095,1.2066,1.2054,1.204,1.201,1.2001,1.1984,1.195,1.1941,1.1932,1.1892,1.187,1.1853,1.1856,1.1845,1.1842,1.1837,1.1849,1.1851,1.1852,1.1856,1.1858,1.1835,1.1835,1.1835,1.1835,0,1.2122,1.2107,1.2104,1.2073,1.2059,1.2049,1.2018,1.2007,1.199,1.1969,1.1952,1.1925,1.19,1.1894,1.1876,1.1874,1.187,1.1856,1.184,1.1857,1.186,1.1862,1.1838,1.1837,1.1837,1.1836,0,0,1.2161,1.2115,1.2115,1.2101,1.2067,1.2054,1.2043,1.2019,1.201,1.1988,1.1977,1.1951,1.1938,1.1922,1.1902,1.1897,1.1908,1.1883,1.1882,1.1889,1.1905,1.1917,1.1919,1.1896,1.1896,1.1896,1.1908,0,1.2174,1.2153,1.2127,1.2114,1.21,1.2071,1.2061,1.2039,1.2019,1.2004,1.1982,1.1964,1.1948,1.1938,1.1932,1.1908,1.1911,1.1907,1.1885,1.1885,1.1894,1.192,1.1932,1.1945,1.1909,1.1909,1.1909,0,1.2187,1.2167,1.2153,1.2121,1.2114,1.2106,1.2082,1.2068,1.2042,1.2028,1.2011,1.199,1.1975,1.1962,1.1942,1.1939,1.1929,1.1916,1.1916,1.1913,1.1898,1.1919,1.1948,1.195,1.191,1.191,1.191,0,1.2218,1.2187,1.2175,1.2164,1.2126,1.2121,1.2105,1.2079,1.2066,1.2045,1.2037,1.2014,1.2002,1.1985,1.1958,1.195,1.1941,1.1925,1.1929,1.193,1.1929,1.1929,1.1957,1.1921,1.1921,1.1921,1.1921,0,1.2235,1.2228,1.2189,1.2181,1.2172,1.2142,1.2134,1.2115,1.2092,1.208,1.2053,1.2043,1.2007,1.1992,1.1971,1.1958,1.1952,1.194,1.1935,1.1943,1.1945,1.1936,1.1935,1.1922,1.1922,1.1921,1.1921,0,1.2268,1.2241,1.2226,1.2192,1.2184,1.2178,1.2149,1.214,1.2119,1.2105,1.21,1.2067,1.2048,1.2019,1.1991,1.1976,1.1967,1.1958,1.1976,1.1973,1.1979,1.1979,1.2003,1.2005,1.1968,1.1968,1.1968,0,1.2281,1.2275,1.2241,1.2231,1.2216,1.2201,1.2189,1.2159,1.2147,1.2118,1.2113,1.2092,1.2074,1.2045,1.2018,1.1997,1.1987,1.1997,1.1984,1.1992,1.1988,1.1989,1.1988,1.2,1.2001,1.2001,1.2001,0,1.2308,1.2295,1.2278,1.2258,1.2244,1.2225,1.2206,1.2199,1.2165,1.2153,1.2134,1.212,1.2092,1.2072,1.2047,1.203,1.201,1.2006,1.2006,1.2014,1.2026,1.202,1.1985,1.2005,1.2005,1.2005,1.2005,1.2004,1.2331,1.2325,1.23,1.2282,1.2265,1.2247,1.2238,1.2216,1.22,1.2176,1.2159,1.2141,1.2116,1.2081,1.2064,1.205,1.2041,1.2041,1.2041,1.2041,1.2045,1.2028,1.2045,1.2045,1.2044,1.2044,1.2044,0,1.2357,1.2339,1.2324,1.2298,1.2284,1.2268,1.2245,1.2235,1.222,1.2198,1.2181,1.2159,1.214,1.2112,1.209,1.2083,1.2074,1.2079,1.2079,1.2076,1.2053,1.2056,1.2087,1.2087,1.2087,1.2087,1.2087,1.2087,1.2368,1.2357,1.2341,1.2321,1.2303,1.2286,1.2275,1.2259,1.2241,1.2219,1.2203,1.2185,1.2161,1.2137,1.2118,1.211,1.2104,1.2112,1.2101,1.2081,1.2077,1.2073,1.2076,1.211,1.211,1.2125,1.2125,1.2125]}]]